[[{"header":{"parameterUnit":"m.s-1","parameterCategory":1,"la1":30.2991,"la2":30.254,"lo1":-89.0895,"lo2":-89.0444,"dy":0.0017,"dx":0.0017,"nx":28,"ny":28,"refTime":"2024-03-13T21:00:00:Z","depth":0,"parameterNumber":2,"parameterNumberName":"U-component_of_WINDS"},"data":[0,0,0,0,0,0,0,0,0,0,0,0,0,0,0,0,0,0,0,0,0,0,0,0,0,0,0,0,0,0,0,0,0,0,0,0,0,0,0,0,0,0,0,0,0,0,0,0,0,0,0,0,0,0,0,0,0,0,-4.7087,-4.7087,0,-4.7134,-4.7135,-4.7135,-4.7094,-4.7092,-4.709,-4.7089,-4.7134,-4.7137,-4.7139,0,0,0,0,0,0,0,0,0,0,0,0,0,-4.6957,-4.696,-4.7087,-4.7087,-4.7088,-4.7134,-4.7135,-4.7135,-4.7094,-4.7092,-4.709,-4.7088,-4.7133,-4.7136,-4.714,0,0,0,0,0,0,0,0,0,0,0,0,0,-4.701,-4.6961,-4.7087,-4.7073,-4.7072,-4.7134,-4.7135,-4.7136,-4.7095,-4.7092,-4.7089,-4.7087,-4.7132,-4.7136,-4.714,-4.7217,0,0,-4.7153,-4.7155,0,0,0,0,0,0,0,0,-4.7007,-4.7015,-4.7074,-4.7074,-4.7073,-4.7106,-4.7106,-4.7163,-4.7095,-4.7086,-4.7089,-4.7086,-4.7126,-4.7131,-4.7145,-4.7219,-4.7221,-4.7153,-4.7156,-4.7157,-4.7159,0,0,0,0,0,0,0,-4.7003,-4.7012,-4.7105,-4.7075,-4.7075,-4.7063,-4.7068,-4.7116,-4.712,-4.7087,-4.7084,-4.709,-4.7125,-4.7141,-4.7146,-4.7221,-4.7153,-4.7157,-4.7159,-4.7161,-4.7359,-4.7362,0,0,0,0,0,0,-4.7002,-4.701,-4.7104,-4.7107,-4.7033,-4.7068,-4.7073,-4.7098,-4.7119,-4.712,-4.7092,-4.7088,-4.7135,-4.7141,-4.7147,-4.7237,-4.7157,-4.7161,-4.7164,-4.7356,-4.7359,-4.7362,0,0,0,0,0,0,-4.6999,-4.7011,-4.7102,-4.7058,-4.7068,-4.7073,-4.7101,-4.71,-4.7116,-4.7123,-4.7123,-4.7108,-4.7134,-4.7141,-4.72,-4.7238,-4.7163,-4.7167,-4.7353,-4.7357,-4.7361,-4.7417,0,0,0,0,0,0,-4.6996,-4.701,-4.704,-4.7059,-4.7071,-4.7154,-4.7103,-4.7103,-4.7123,-4.7118,-4.7138,-4.7139,-4.7132,-4.7194,-4.7204,-4.7242,-4.717,-4.7349,-4.7355,-4.736,-4.7412,-4.7423,-4.7432,0,0,0,0,0,-4.6991,-4.7053,-4.7041,-4.7053,-4.7108,-4.7157,-4.7164,-4.7156,-4.7127,-4.7156,-4.7161,-4.7138,-4.7233,-4.72,-4.7211,-4.7251,-4.7347,-4.7353,-4.7359,-4.7407,-4.742,-4.7432,0,0,0,0,0,0,-4.7037,-4.7055,-4.7042,-4.7112,-4.7134,-4.715,-4.7186,-4.717,-4.7199,-4.7193,-4.7181,-4.7186,-4.7247,-4.7255,-4.7218,-4.7326,-4.7285,-4.7294,-4.7318,-4.733,-4.734,-4.7335,-4.7174,0,0,0,0,0,-4.7055,-4.7094,-4.7108,-4.7168,-4.718,-4.7182,-4.7202,-4.7195,-4.7215,-4.7224,-4.7233,-4.7253,-4.7287,-4.731,-4.7342,-4.7414,-4.7416,-4.7447,-4.7457,-4.7465,-4.7472,-4.7509,-4.7522,-4.7383,-4.7383,-4.7383,0,0,-4.7093,-4.7108,-4.7133,-4.7178,-4.7193,-4.7232,-4.7189,-4.7232,-4.7261,-4.723,-4.7285,-4.7293,-4.7315,-4.738,-4.7409,-4.7389,-4.7512,-4.7473,-4.748,-4.7482,-4.7517,-4.753,-4.7542,-4.7387,-4.7386,-4.7386,0,0,-4.7181,-4.7198,-4.7249,-4.7266,-4.729,-4.7291,-4.7304,-4.7323,-4.7327,-4.7383,-4.736,-4.7394,-4.7454,-4.747,-4.7486,-4.7582,-4.7561,-4.7593,-4.7644,-4.7681,-4.7691,-4.7701,-4.7733,-4.7745,-4.76,-4.76,-4.7601,0,-4.7224,-4.7284,-4.7277,-4.7322,-4.7342,-4.7318,-4.7369,-4.7385,-4.7419,-4.7432,-4.741,-4.7484,-4.7497,-4.7565,-4.7588,-4.7603,-4.7615,-4.7589,-4.7691,-4.77,-4.7709,-4.7739,-4.7752,-4.7604,-4.7603,-4.7603,-4.7603,0,-4.7335,-4.7376,-4.7415,-4.7448,-4.7473,-4.7521,-4.7521,-4.7546,-4.7537,-4.754,-4.7597,-4.7612,-4.7646,-4.7663,-4.7654,-4.7729,-4.7716,-4.7693,-4.765,-4.7726,-4.7754,-4.7766,-4.7609,-4.7608,-4.7607,-4.7606,0,0,-4.745,-4.7481,-4.7495,-4.7509,-4.7536,-4.7567,-4.7614,-4.7648,-4.7669,-4.7694,-4.7731,-4.7783,-4.7762,-4.778,-4.7774,-4.7806,-4.7879,-4.7779,-4.7779,-4.7794,-4.796,-4.7975,-4.7989,-4.7867,-4.7869,-4.7871,-4.7958,0,-4.7537,-4.7619,-4.7615,-4.7691,-4.7728,-4.7707,-4.7748,-4.7768,-4.7773,-4.7804,-4.7809,-4.7845,-4.7816,-4.7826,-4.7858,-4.7863,-4.7911,-4.7858,-4.7899,-4.7901,-4.7891,-4.8004,-4.802,-4.8101,-4.7969,-4.7971,-4.7972,0,-4.7649,-4.7678,-4.7758,-4.7778,-4.7794,-4.7831,-4.7862,-4.7893,-4.7915,-4.7916,-4.7938,-4.7926,-4.7972,-4.7932,-4.7994,-4.7958,-4.7975,-4.7981,-4.7984,-4.7984,-4.7939,-4.8005,-4.8127,-4.8137,-4.799,-4.7988,-4.7987,0,-4.7721,-4.7781,-4.7836,-4.785,-4.7876,-4.7902,-4.7914,-4.7933,-4.7954,-4.7982,-4.7995,-4.8028,-4.8045,-4.807,-4.8066,-4.8038,-4.8129,-4.8089,-4.813,-4.813,-4.8147,-4.8145,-4.827,-4.8164,-4.8164,-4.8163,-4.8163,0,-4.7817,-4.7866,-4.7869,-4.7902,-4.7957,-4.7952,-4.8006,-4.8015,-4.8033,-4.8067,-4.8052,-4.8084,-4.8079,-4.8112,-4.811,-4.8161,-4.8169,-4.817,-4.8168,-4.8169,-4.8169,-4.8178,-4.8171,-4.8167,-4.8166,-4.8165,-4.8165,0,-4.7905,-4.791,-4.7968,-4.7989,-4.7995,-4.8034,-4.8051,-4.8082,-4.8087,-4.813,-4.814,-4.8147,-4.8184,-4.8184,-4.8227,-4.8225,-4.8287,-4.828,-4.8279,-4.8277,-4.8316,-4.8311,-4.8448,-4.8465,-4.8351,-4.8352,-4.8353,0,-4.7964,-4.8001,-4.8027,-4.8049,-4.8063,-4.8099,-4.8121,-4.8118,-4.8141,-4.817,-4.8197,-4.8234,-4.8262,-4.8322,-4.833,-4.8362,-4.8354,-4.84,-4.8358,-4.8358,-4.8351,-4.8348,-4.835,-4.8407,-4.8408,-4.8409,-4.841,0,-4.8067,-4.8068,-4.81,-4.8134,-4.8161,-4.8187,-4.8211,-4.823,-4.823,-4.8257,-4.8295,-4.8318,-4.8361,-4.8396,-4.8428,-4.8439,-4.8424,-4.8424,-4.8434,-4.8434,-4.843,-4.843,-4.8298,-4.842,-4.8419,-4.8418,-4.8417,-4.8417,-4.8141,-4.8172,-4.8195,-4.8232,-4.825,-4.8273,-4.8303,-4.8313,-4.8345,-4.8381,-4.8378,-4.842,-4.8441,-4.8482,-4.8496,-4.8528,-4.8512,-4.8528,-4.8531,-4.8534,-4.8537,-4.8429,-4.8534,-4.8534,-4.8534,-4.8534,-4.8533,0,-4.824,-4.8255,-4.8289,-4.8323,-4.8352,-4.8338,-4.8365,-4.8389,-4.8426,-4.8448,-4.8477,-4.8521,-4.8555,-4.8567,-4.86,-4.8623,-4.8617,-4.8632,-4.8628,-4.863,-4.8551,-4.8537,-4.8636,-4.8636,-4.8636,-4.8636,-4.8636,-4.8636,-4.8295,-4.8348,-4.8352,-4.8413,-4.8427,-4.8468,-4.8484,-4.8505,-4.8522,-4.8572,-4.8601,-4.8609,-4.8627,-4.8661,-4.8692,-4.8694,-4.8706,-4.8723,-4.8722,-4.8647,-4.8636,-4.8626,-4.8613,-4.8726,-4.8726,-4.8798,-4.8799,-4.8799]},{"header":{"parameterUnit":"m.s-1","parameterCategory":1,"la1":30.2991,"la2":30.254,"lo1":-89.0895,"lo2":-89.0444,"dy":0.0017,"dx":0.0017,"nx":28,"ny":28,"refTime":"2024-03-13T21:00:00:Z","depth":0,"parameterNumber":3,"parameterNumberName":"V-component_of_WINDS"},"data":[0,0,0,0,0,0,0,0,0,0,0,0,0,0,0,0,0,0,0,0,0,0,0,0,0,0,0,0,0,0,0,0,0,0,0,0,0,0,0,0,0,0,0,0,0,0,0,0,0,0,0,0,0,0,0,0,0,0,2.5418,2.5418,0,2.5411,2.5411,2.5411,2.5402,2.5402,2.5402,2.5401,2.539,2.539,2.5389,0,0,0,0,0,0,0,0,0,0,0,0,0,2.5418,2.5418,2.5418,2.5418,2.5418,2.5411,2.5411,2.5411,2.5402,2.5402,2.5402,2.5401,2.539,2.539,2.5389,0,0,0,0,0,0,0,0,0,0,0,0,0,2.5416,2.5419,2.5418,2.5412,2.5412,2.5411,2.5411,2.5411,2.5402,2.5402,2.5402,2.5401,2.539,2.539,2.5389,2.5392,0,0,2.5389,2.5388,0,0,0,0,0,0,0,0,2.5416,2.5416,2.5413,2.5413,2.5412,2.5407,2.5407,2.5405,2.5402,2.5406,2.5401,2.5401,2.5395,2.5395,2.5394,2.5392,2.5391,2.5389,2.5388,2.5388,2.5388,0,0,0,0,0,0,0,2.5416,2.5416,2.5415,2.5413,2.5413,2.5409,2.5409,2.5407,2.5402,2.5405,2.5405,2.5404,2.5395,2.5394,2.5393,2.5391,2.5389,2.5388,2.5388,2.5388,2.5393,2.5393,0,0,0,0,0,0,2.5418,2.5416,2.5415,2.5415,2.5414,2.5409,2.5409,2.5409,2.5402,2.54,2.5404,2.5404,2.5395,2.5394,2.5393,2.5397,2.5388,2.5388,2.5388,2.5393,2.5393,2.5393,0,0,0,0,0,0,2.5418,2.5418,2.5416,2.5415,2.5415,2.541,2.541,2.5409,2.5408,2.5401,2.54,2.5405,2.5394,2.5393,2.5393,2.5397,2.5388,2.5388,2.5392,2.5393,2.5393,2.5405,0,0,0,0,0,0,2.5418,2.5418,2.5419,2.5416,2.5415,2.5417,2.541,2.5409,2.5408,2.5407,2.5401,2.54,2.5394,2.5394,2.5393,2.5396,2.5387,2.5392,2.5392,2.5393,2.5404,2.5406,2.5407,0,0,0,0,0,2.5418,2.5421,2.5419,2.5419,2.5417,2.5417,2.5417,2.5412,2.5409,2.541,2.5406,2.54,2.5397,2.5394,2.5393,2.5396,2.5392,2.5392,2.5393,2.5404,2.5406,2.5407,0,0,0,0,0,0,2.5423,2.5421,2.5418,2.5421,2.542,2.5416,2.5417,2.5414,2.5412,2.5411,2.5403,2.5402,2.5403,2.5399,2.5396,2.54,2.5393,2.5394,2.5402,2.5404,2.5405,2.5406,2.5387,0,0,0,0,0,2.5425,2.5427,2.5424,2.5426,2.5426,2.5422,2.5422,2.5419,2.5416,2.5415,2.541,2.5407,2.5405,2.5404,2.5402,2.5404,2.5403,2.5406,2.5407,2.5408,2.5409,2.5411,2.5413,2.5395,2.5395,2.5395,0,0,2.5428,2.5427,2.5428,2.5428,2.5426,2.5427,2.5421,2.5422,2.5423,2.5414,2.5415,2.5412,2.5407,2.5409,2.5409,2.5406,2.5414,2.5409,2.541,2.541,2.5412,2.5414,2.5415,2.5396,2.5396,2.5396,0,0,2.5435,2.5434,2.5437,2.5437,2.5435,2.5433,2.5434,2.5431,2.5429,2.543,2.5425,2.5425,2.5421,2.5419,2.5418,2.5427,2.5422,2.5426,2.5433,2.5436,2.5437,2.5438,2.5443,2.5444,2.5426,2.5427,2.5427,0,2.5438,2.5441,2.5438,2.5441,2.5441,2.5436,2.5439,2.5438,2.5436,2.5436,2.5432,2.543,2.5427,2.5429,2.5431,2.543,2.5431,2.5427,2.5438,2.5439,2.544,2.5444,2.5445,2.5427,2.5427,2.5427,2.5427,0,2.5446,2.5448,2.5451,2.5452,2.5452,2.5454,2.5452,2.5452,2.545,2.5448,2.5449,2.5446,2.5444,2.5444,2.544,2.5446,2.5444,2.5439,2.5433,2.5442,2.5446,2.5447,2.5428,2.5428,2.5428,2.5428,0,0,2.5454,2.5456,2.5457,2.5458,2.5458,2.5459,2.5461,2.5462,2.5463,2.5462,2.5464,2.5463,2.546,2.5458,2.5454,2.5456,2.5465,2.5451,2.5451,2.5455,2.5473,2.5477,2.5479,2.5462,2.5462,2.5463,2.5474,0,2.5461,2.5467,2.5466,2.5472,2.5475,2.5471,2.5474,2.5473,2.5472,2.5473,2.547,2.5471,2.5466,2.5465,2.5467,2.5464,2.5469,2.5463,2.5464,2.5464,2.5466,2.5481,2.5484,2.5495,2.5475,2.5475,2.5475,0,2.5469,2.5472,2.5479,2.5481,2.5482,2.5484,2.5486,2.5487,2.5487,2.5485,2.5485,2.5482,2.5484,2.5478,2.5481,2.5477,2.5478,2.5477,2.5477,2.5477,2.547,2.5482,2.5498,2.55,2.5477,2.5477,2.5477,0,2.5476,2.5481,2.5486,2.5487,2.5489,2.5491,2.5491,2.5491,2.5493,2.5493,2.5494,2.5494,2.5494,2.5495,2.5491,2.5487,2.5495,2.5488,2.5494,2.5494,2.5496,2.5496,2.5513,2.5495,2.5495,2.5495,2.5495,0,2.5484,2.5489,2.549,2.5493,2.5498,2.5497,2.5502,2.5502,2.5502,2.5505,2.5501,2.5503,2.5498,2.55,2.5497,2.5501,2.5501,2.55,2.5499,2.5501,2.5501,2.5501,2.55,2.5495,2.5495,2.5495,2.5495,0,2.5492,2.5493,2.5499,2.5501,2.5502,2.5506,2.5507,2.551,2.551,2.5513,2.5514,2.5512,2.5515,2.5512,2.5512,2.5511,2.5517,2.5514,2.5518,2.5517,2.5523,2.5523,2.5542,2.5544,2.5524,2.5524,2.5524,0,2.5497,2.5501,2.5505,2.5508,2.551,2.5514,2.5516,2.5515,2.5517,2.5519,2.5522,2.5524,2.5526,2.553,2.5528,2.5529,2.5527,2.5534,2.5527,2.553,2.5529,2.5529,2.553,2.5535,2.5535,2.5536,2.5536,0,2.5507,2.5508,2.5512,2.5517,2.5521,2.5524,2.5527,2.5529,2.5528,2.5531,2.5535,2.5537,2.554,2.5542,2.5544,2.5543,2.5539,2.5538,2.554,2.5541,2.5544,2.5544,2.5522,2.5538,2.5537,2.5537,2.5537,2.5537,2.5514,2.5518,2.5523,2.5528,2.5531,2.5535,2.5539,2.554,2.5543,2.5548,2.5546,2.5551,2.5552,2.5554,2.5554,2.5558,2.5554,2.5556,2.5557,2.5558,2.5559,2.5543,2.5557,2.5557,2.5557,2.5557,2.5557,0,2.5524,2.5528,2.5533,2.5539,2.5544,2.5542,2.5546,2.555,2.5555,2.5557,2.556,2.5566,2.5569,2.5569,2.5571,2.5574,2.5573,2.5575,2.5575,2.5575,2.5561,2.556,2.5576,2.5576,2.5576,2.5576,2.5576,2.5576,2.553,2.5538,2.554,2.555,2.5553,2.5559,2.5562,2.5565,2.5568,2.5575,2.5578,2.5579,2.5581,2.5584,2.5587,2.5587,2.5589,2.5592,2.5591,2.5578,2.5576,2.5574,2.5573,2.5592,2.5592,2.5605,2.5605,2.5605]}]]